TimeEST,TemperatureF,Dew PointF,Humidity,Sea Level PressureIn,VisibilityMPH,Wind Direction,Wind SpeedMPH,Gust SpeedMPH,PrecipitationIn,Events,Conditions,WindDirDegrees,DateUTC
12:14 AM,37.4,33.8,87,30.36,10.0,ESE,12.7,17.3,N/A,,Clear,120,2013-11-04 05:14:00
12:35 AM,37.4,33.8,87,30.35,10.0,ESE,11.5,18.4,N/A,,Clear,110,2013-11-04 05:35:00
12:55 AM,37.4,33.8,87,30.36,10.0,ESE,12.7,-,N/A,,Clear,120,2013-11-04 05:55:00
1:14 AM,37.4,33.8,87,30.36,10.0,ESE,8.1,-,N/A,,Clear,120,2013-11-04 06:14:00
1:35 AM,37.4,33.8,87,30.37,10.0,ESE,9.2,-,N/A,,Clear,120,2013-11-04 06:35:00
1:54 AM,37.4,33.8,87,30.36,10.0,ESE,10.4,-,N/A,,Clear,120,2013-11-04 06:54:00
2:15 AM,37.4,33.8,87,30.37,10.0,SE,10.4,-,N/A,,Clear,130,2013-11-04 07:15:00
2:35 AM,37.4,33.8,87,30.37,10.0,SE,10.4,-,N/A,,Clear,130,2013-11-04 07:35:00
2:54 AM,37.4,33.8,87,30.38,10.0,SE,9.2,17.3,N/A,,Clear,130,2013-11-04 07:54:00
3:15 AM,37.4,33.8,87,30.37,10.0,SE,9.2,-,N/A,,Clear,130,2013-11-04 08:15:00
3:35 AM,37.4,32.0,81,30.36,10.0,SE,10.4,16.1,N/A,,Clear,130,2013-11-04 08:35:00
3:55 AM,37.4,32.0,81,30.35,10.0,SE,13.8,19.6,N/A,,Clear,130,2013-11-04 08:55:00
4:14 AM,37.4,32.0,81,30.37,10.0,SE,10.4,-,N/A,,Clear,130,2013-11-04 09:14:00
4:35 AM,37.4,32.0,81,30.36,10.0,SE,12.7,17.3,N/A,,Clear,130,2013-11-04 09:35:00
4:55 AM,37.4,32.0,81,30.36,10.0,SE,11.5,-,N/A,,Clear,130,2013-11-04 09:55:00
5:14 AM,37.4,32.0,81,30.37,10.0,SE,11.5,18.4,N/A,,Clear,140,2013-11-04 10:14:00
5:35 AM,37.4,32.0,81,30.37,10.0,SE,9.2,-,N/A,,Clear,130,2013-11-04 10:35:00
5:55 AM,37.4,32.0,81,30.37,10.0,SE,9.2,-,N/A,,Clear,140,2013-11-04 10:55:00
6:14 AM,35.6,32.0,87,30.36,10.0,SE,11.5,-,N/A,,Clear,140,2013-11-04 11:14:00
6:35 AM,35.6,32.0,87,30.36,10.0,SE,11.5,-,N/A,,Clear,130,2013-11-04 11:35:00
6:55 AM,37.4,32.0,81,30.36,10.0,SE,10.4,-,N/A,,Clear,140,2013-11-04 11:55:00
7:14 AM,37.4,32.0,81,30.36,10.0,SE,9.2,-,N/A,,Clear,140,2013-11-04 12:14:00
7:35 AM,37.4,32.0,81,30.36,10.0,SE,11.5,-,N/A,,Clear,130,2013-11-04 12:35:00
7:55 AM,37.4,32.0,81,30.36,10.0,SE,10.4,-,N/A,,Clear,140,2013-11-04 12:55:00
8:14 AM,37.4,32.0,81,30.36,10.0,SE,11.5,-,N/A,,Clear,130,2013-11-04 13:14:00
8:35 AM,37.4,32.0,81,30.37,10.0,SE,11.5,16.1,N/A,,Clear,130,2013-11-04 13:35:00
8:55 AM,39.2,33.8,81,30.36,10.0,SE,12.7,-,N/A,,Clear,130,2013-11-04 13:55:00
9:14 AM,39.2,33.8,81,30.35,10.0,SE,13.8,-,N/A,,Clear,130,2013-11-04 14:14:00
9:35 AM,39.2,33.8,81,30.36,10.0,SSE,10.4,-,N/A,,Clear,150,2013-11-04 14:35:00
9:55 AM,42.8,33.8,70,30.35,10.0,SE,11.5,-,N/A,,Clear,140,2013-11-04 14:55:00
10:14 AM,42.8,33.8,70,30.35,10.0,SSE,11.5,18.4,N/A,,Clear,150,2013-11-04 15:14:00
10:35 AM,44.6,33.8,66,30.34,10.0,SSE,11.5,-,N/A,,Clear,150,2013-11-04 15:35:00
10:55 AM,44.6,33.8,66,30.33,10.0,SSE,11.5,18.4,N/A,,Clear,150,2013-11-04 15:55:00
11:14 AM,46.4,33.8,62,30.33,10.0,SSE,16.1,-,N/A,,Clear,150,2013-11-04 16:14:00
11:35 AM,46.4,33.8,62,30.33,10.0,SSE,11.5,-,N/A,,Clear,150,2013-11-04 16:35:00
11:55 AM,46.4,33.8,62,30.33,10.0,SSE,15.0,19.6,N/A,,Clear,160,2013-11-04 16:55:00
12:15 PM,46.4,33.8,62,30.32,10.0,SSE,16.1,23.0,N/A,,Clear,160,2013-11-04 17:15:00
12:34 PM,48.2,33.8,58,30.30,10.0,SE,16.1,23.0,N/A,,Clear,140,2013-11-04 17:34:00
12:55 PM,48.2,32.0,54,30.29,10.0,SSE,12.7,-,N/A,,Clear,150,2013-11-04 17:55:00
1:14 PM,48.2,32.0,54,30.27,10.0,SE,11.5,18.4,N/A,,Clear,140,2013-11-04 18:14:00
1:35 PM,48.2,30.2,50,30.27,10.0,SSE,9.2,-,N/A,,Clear,150,2013-11-04 18:35:00
1:55 PM,48.2,30.2,50,30.26,10.0,SSE,9.2,20.7,N/A,,Clear,160,2013-11-04 18:55:00
2:14 PM,48.2,30.2,50,30.26,10.0,SSE,13.8,-,N/A,,Clear,150,2013-11-04 19:14:00
2:34 PM,48.2,30.2,50,30.25,10.0,SE,15.0,-,N/A,,Clear,140,2013-11-04 19:34:00
2:55 PM,48.2,32.0,54,30.24,10.0,SSE,16.1,19.6,N/A,,Clear,150,2013-11-04 19:55:00
3:14 PM,48.2,32.0,54,30.25,10.0,SSE,11.5,18.4,N/A,,Clear,150,2013-11-04 20:14:00
3:35 PM,48.2,33.8,58,30.25,10.0,SSE,13.8,19.6,N/A,,Clear,150,2013-11-04 20:35:00
3:55 PM,48.2,33.8,58,30.24,10.0,SE,11.5,-,N/A,,Clear,140,2013-11-04 20:55:00
4:14 PM,48.2,33.8,58,30.25,10.0,SSE,11.5,-,N/A,,Clear,150,2013-11-04 21:14:00
4:35 PM,48.2,33.8,58,30.25,10.0,SSE,8.1,17.3,N/A,,Clear,160,2013-11-04 21:35:00
4:55 PM,48.2,33.8,58,30.25,10.0,SSE,11.5,-,N/A,,Clear,150,2013-11-04 21:55:00
5:14 PM,48.2,33.8,58,30.24,10.0,SSE,12.7,-,N/A,,Clear,150,2013-11-04 22:14:00
5:35 PM,48.2,35.6,62,30.24,10.0,SE,10.4,-,N/A,,Clear,140,2013-11-04 22:35:00
5:54 PM,48.2,35.6,62,30.23,10.0,SE,10.4,-,N/A,,Clear,140,2013-11-04 22:54:00
6:15 PM,48.2,35.6,62,30.23,10.0,SSE,11.5,-,N/A,,Clear,150,2013-11-04 23:15:00
6:34 PM,48.2,35.6,62,30.24,10.0,SSE,10.4,-,N/A,,Clear,150,2013-11-04 23:34:00
6:55 PM,48.2,35.6,62,30.23,10.0,SE,12.7,-,N/A,,Clear,130,2013-11-04 23:55:00
7:15 PM,48.2,35.6,62,30.23,10.0,SSE,11.5,21.9,N/A,,Clear,150,2013-11-05 00:15:00
7:34 PM,48.2,35.6,62,30.24,10.0,SSE,10.4,19.6,N/A,,Clear,160,2013-11-05 00:34:00
7:55 PM,48.2,37.4,66,30.24,10.0,South,10.4,-,N/A,,Scattered Clouds,170,2013-11-05 00:55:00
8:14 PM,48.2,37.4,66,30.24,10.0,South,10.4,16.1,N/A,,Scattered Clouds,170,2013-11-05 01:14:00
8:35 PM,48.2,37.4,66,30.25,10.0,South,11.5,18.4,N/A,,Scattered Clouds,180,2013-11-05 01:35:00
8:54 PM,48.2,37.4,66,30.25,10.0,South,9.2,-,N/A,,Scattered Clouds,180,2013-11-05 01:54:00
9:15 PM,48.2,37.4,66,30.26,10.0,South,8.1,-,N/A,,Scattered Clouds,180,2013-11-05 02:15:00
9:35 PM,48.2,37.4,66,30.26,10.0,South,6.9,-,N/A,,Scattered Clouds,180,2013-11-05 02:35:00
9:54 PM,46.4,37.4,71,30.26,10.0,South,6.9,-,N/A,,Clear,170,2013-11-05 02:54:00
10:15 PM,46.4,37.4,71,30.26,10.0,South,6.9,-,N/A,,Clear,170,2013-11-05 03:15:00
10:35 PM,44.6,37.4,76,30.26,10.0,South,5.8,-,N/A,,Clear,180,2013-11-05 03:35:00
10:54 PM,46.4,39.2,76,30.26,10.0,South,5.8,-,N/A,,Scattered Clouds,170,2013-11-05 03:54:00
11:15 PM,46.4,39.2,76,30.26,10.0,South,9.2,-,N/A,,Mostly Cloudy,180,2013-11-05 04:15:00
11:35 PM,46.4,39.2,76,30.25,10.0,South,11.5,-,N/A,,Scattered Clouds,180,2013-11-05 04:35:00
11:54 PM,48.2,39.2,71,30.25,10.0,South,10.4,-,N/A,,Clear,190,2013-11-05 04:54:00